BANXING-2 (41834 NORAD) Tracking and Keplerian Element Data

This shows tracking and keplerian element data for the satellite.

Feedback or suggestion? Click here.




ElementValue
Catalog41834
NameBANXING-2
Epoch Orbit14276
Epoch Day106.59016458
Epoch Year2019
RAAN218.3889
Inclination42.7739
Eccentricity0.0015366
Argument of Perigee352.6637
Mean Anonmoly129.149
Mean Motion15.97528393
Decay Rate0.0007842
L11 41834U 16057H 19106.59016458 .00078420 10777-4 17226-3 0 9992
L22 41834 42.7739 218.3889 0015366 352.6637 129.1490 15.97528393142764

Live tracking and technical data element details for BANXING-2 (NORAD 41834). BANXING-2 can be tracked NOW for your location showing map with azimuth and elevation plus other details from your city location.

Track the satellite on the map from your city or location and see movement details for azimuth, elevation, latitude, longitude, range, height, and movement on the map or in text.







IsCatalogInMostPopularTable: catalog: 41834, numindb: 199
Update: records affected: 1



GetName: 41834 BANXING-2

Hit Count: updated at: Sat, 20 Apr 2019 00:24:39 GMT